Tracking 25734 objects as of 27-May-2022
HD Live streaming from Space Station
objects crossing your sky now

FREGAT DEB

Track FREGAT DEB now!
10-day predictions


NORAD ID: 46411
Int'l Code: 2011-037LQ
Perigee: 486.1 km
Apogee: 3,437.3 km
Inclination: 51.5 °
Period: 126.2 minutes
Semi major axis: 8332 km
RCS: Unknown
Launch date: July 18, 2011
Source: Commonwealth of Independent States (former USSR) (CIS)
Launch site: TYURATAM MISSILE AND SPACE COMPLEX (TTMTR)

Note: This is SATELLITE DEBRIS
aabbcc
Your satellite tracking list
Your tracking list is empty




NASA's NSSDC Master Catalog

Two Line Element Set (TLE):
1 46411U 11037LS  22144.50522398  .00005692  00000-0  19287-2 0  9996
2 46411  51.5040 327.7106 1770839 359.0643   0.7032 11.41367940 76331
Source of the keplerian elements: AFSPC